Regional Weather Roundup
Issued by NWS Little Rock, AR

Home | Current Version | Previous Version | Text Only | Print | Product List | Glossary On
Versions: 1 2 3 4 5 6 7 8 9 10 11 12 13 14 15 16 17 18 19 20 21 22 23 24 25 26 27
000
ASUS44 KLZK 211605
RWRLZK

WEATHER ROUNDUP FOR ARKANSAS
NATIONAL WEATHER SERVICE LITTLE ROCK AR
1100 AM CDT MON APR 21 2014

NOTE: "FAIR" INDICATES FEW OR NO CLOUDS BELOW 12,000 FEET WITH NO
SIGNIFICANT WEATHER AND/OR OBSTRUCTIONS TO VISIBILITY.

ARZ001-003-010-029-211700-
NORTHWEST ARKANSAS

CITY           SKY/WX    TMP DP  RH WIND       PRES   REMARKS
FAYETTEVILLE   LGT RAIN  63  59  87 SW8       30.05S
FORT SMITH     LGT RAIN  69  62  78 CALM      30.04S
HARRISON       CLOUDY    64  59  83 SE6       30.06S
BENTONVILLE    CLOUDY    64  57  77 S6        30.06S
ROGERS         CLOUDY    63  59  87 CALM      30.06S
SILOAM SPGS    CLOUDY    63  54  72 SW14      30.07R
HIGHFILL       CLOUDY    65  61  87 S8        30.04F
SPRINGDALE     CLOUDY    64  59  82 S7        30.07R
$$

ARZ004-005-016-211700-
NORTH CENTRAL ARKANSAS

CITY           SKY/WX    TMP DP  RH WIND       PRES   REMARKS
BATESVILLE     PTSUNNY   66  55  68 CALM      30.05S
FLIPPIN        CLOUDY    66  54  63 CALM      30.05S
MTN HOME       LGT RAIN  66  58  75 CALM      30.04F
$$

ARZ040-041-211700-
WEST CENTRAL ARKANSAS

CITY           SKY/WX    TMP DP  RH WIND       PRES   REMARKS
MENA           CLOUDY    70  68  94 CALM      30.06R
MOUNT IDA      PTSUNNY   69  61  75 CALM      30.02S
$$

ARZ009-017-025-026-028-211700-
NORTHEAST ARKANSAS

CITY           SKY/WX    TMP DP  RH WIND       PRES   REMARKS
CORNING        LGT RAIN  63  57  82 CALM      30.07R
JONESBORO      LGT RAIN  64  56  75 CALM      30.06S
NEWPORT        CLOUDY    66  55  67 SE5       30.07S
WALNUT RIDGE   CLOUDY    63  55  77 E5        30.06S
BLYTHEVILLE    PTSUNNY   72  54  53 W8        30.07R
NW BLYTHEVILLE PTSUNNY   72  54  53 W8        30.06S
$$

ARZ022-023-033-042-044-211700-
CENTRAL ARKANSAS

CITY           SKY/WX    TMP DP  RH WIND       PRES   REMARKS
LITTLE ROCK    CLOUDY    72  58  61 SE3       30.05S
N LITTLE ROCK  CLOUDY    74  59  60 SW3       30.05S
JACKSONVILLE   SUNNY     75  57  54 W3        30.04S
SEARCY         MOSUNNY   69  57  65 CALM      30.06S
HOT SPRINGS    MOSUNNY   76  58  53 VRB3      30.04F
RUSSELLVILLE   CLOUDY    71  60  68 CALM      30.03S
CLINTON        FAIR      70  61  73 CALM      30.05F
$$

ARZ036-211700-
EAST ARKANSAS

CITY           SKY/WX    TMP DP  RH WIND       PRES   REMARKS
WEST MEMPHIS   CLOUDY    70  55  59 SW7       30.05R
$$

ARZ050-053-066-070-073-211700-
SOUTHWEST ARKANSAS

CITY           SKY/WX    TMP DP  RH WIND       PRES   REMARKS
ARKADELPHIA    FAIR      76  62  61 CALM      30.05F
CAMDEN         PTSUNNY   73  57  56 MISG      30.06R
TEXARKANA      PTSUNNY   69  61  75 S6        30.05F
EL DORADO      CLOUDY    71  56  58 S9        30.08R
DE QUEEN       PTSUNNY   69  63  81 SE3       30.03S
$$

ARZ056-057-069-211700-
SOUTHEAST ARKANSAS

CITY           SKY/WX    TMP DP  RH WIND       PRES   REMARKS
PINE BLUFF     CLOUDY    68  57  68 CALM      30.07R
STUTTGART      CLOUDY    66  55  68 SE7       30.06F
MONTICELLO     CLOUDY    75  56  51 S6        30.07R

$$





USA.gov is the U.S. government's official web portal to all federal, state and local government web resources and services.